Вернуться в каталог

STARLINK-31789

АктивенСвязьVLEO
NORAD 59644·PAYLOAD·🇺🇸 United States

Запущен May 3, 2024 с Cape Canaveral Space Force Station

Loading…

Ближайшие Пролёты (ближайшие 24 часа)

TLE

СвежийSource: CelesTrak SupGP

Эпоха: Sep 14, 2026, 22:35 UTC

1 59644C 24082P   26257.94145833 -.00033933  00000+0 -12292-2 0  2570
2 59644  42.9996 150.8847 0001255 269.9200 212.5552 15.27590237    17

Отслеживайте STARLINK-31789 в реальном времени с AllMySat

Download on the App Store